Location: El Bakhil
(32.7726°N, 5.5387°W)
Time: 01:32:09
(UTC+00:00)

Envisat - Visible Passes

Search period start: 15 May 2021 00:00
Search period end: 25 May 2021 00:00
Orbit: 764 x 766 km, 98.1° (Epoch: 14 May)

Date Brightness Start Highest point End Pass type
(mag) Time Alt. Az. Time Alt. Az. Time Alt. Az.
15 May 5.6 04:51:13 10° NE 04:55:03 21° E 04:58:52 10° SE visible
18 May 5.7 04:40:23 10° NE 04:43:31 16° E 04:46:38 10° SE visible
21 May 6.0 04:29:58 10° ENE 04:31:58 12° E 04:33:56 10° ESE visible
